Satellite: CO-57
Catalog number: 27848
Epoch time:      09245.52406231
Element set:    0607
Inclination:      098.7178 deg
RA of node:       252.6656 deg
Eccentricity:    0.0009103
Arg of perigee:   288.0514 deg
Mean anomaly:     071.9669 deg
Mean motion:   14.20453447 rev/day
Decay rate:       -4.0e-08 rev/day^2
Epoch rev:           32020
Checksum:              306

Satellite: AO-51
Catalog number: 28375
Epoch time:      09245.68312070
Element set:    0477
Inclination:      098.0538 deg
RA of node:       250.7758 deg
Eccentricity:    0.0082995
Arg of perigee:   250.3490 deg
Mean anomaly:     108.8726 deg
Mean motion:   14.40650788 rev/day
Decay rate:       -2.0e-08 rev/day^2
Epoch rev:           27211
Checksum:              322

Satellite: CO-56
Catalog number: 28941
Epoch time:      09246.78080689
Element set:     407
Inclination:      098.1380 deg
RA of node:       076.6668 deg
Eccentricity:    0.0060578
Arg of perigee:   193.3352 deg
Mean anomaly:     166.6333 deg
Mean motion:   15.95295267 rev/day
Decay rate:    1.04723e-03 rev/day^2
Epoch rev:           19973
Checksum:              365

Satellite: GENESAT1
Catalog number: 29655
Epoch time:      09246.85444574
Element set:     798
Inclination:      040.0228 deg
RA of node:       049.8373 deg
Eccentricity:    0.0003958
Arg of perigee:   350.4811 deg
Mean anomaly:     009.5930 deg
Mean motion:   15.67139122 rev/day
Decay rate:     1.2118e-04 rev/day^2
Epoch rev:           15481
Checksum:              313

Satellite: CP3
Catalog number: 31129
Epoch time:      09246.10313324
Element set:     170
Inclination:      097.9816 deg
RA of node:       295.4230 deg
Eccentricity:    0.0103391
Arg of perigee:   044.3389 deg
Mean anomaly:     316.6027 deg
Mean motion:   14.52158779 rev/day
Decay rate:        7.0e-07 rev/day^2
Epoch rev:           12619
Checksum:              288

Satellite: CO-65
Catalog number: 32785
Epoch time:      09245.25594560
Element set:    0467
Inclination:      097.9390 deg
RA of node:       308.5601 deg
Eccentricity:    0.0015795
Arg of perigee:   137.9245 deg
Mean anomaly:     222.3182 deg
Mean motion:   14.81511859 rev/day
Decay rate:       -9.9e-07 rev/day^2
Epoch rev:           07285
Checksum:              342

Satellite: KKS-1
Catalog number: 33493
Epoch time:      09246.28513902
Element set:     718
Inclination:      098.0619 deg
RA of node:       358.8601 deg
Eccentricity:    0.0019899
Arg of perigee:   353.1234 deg
Mean anomaly:     006.9730 deg
Mean motion:   14.80721441 rev/day
Decay rate:       1.93e-06 rev/day^2
Epoch rev:            3302
Checksum:              299

Satellite: SOHLA-1
Catalog number: 33496
Epoch time:      09246.76289331
Element set:     684
Inclination:      098.0421 deg
RA of node:       354.8657 deg
Eccentricity:    0.0007584
Arg of perigee:   040.7368 deg
Mean anomaly:     319.4405 deg
Mean motion:   14.69445158 rev/day
Decay rate:        2.9e-07 rev/day^2
Epoch rev:            3281
Checksum:              327

/EX
SB KEPS @ AMSAT  $ORB09246.W
Orbital Elements  09246.WEATHER

HR AMSAT ORBITAL ELEMENTS FOR WEATHER SATELLITES
FROM WA5QGD FORT WORTH,TX September 3, 2009
Send Subscribe/unsubscribe to KEPS at 
http://www.amsat.org/mailman/listinfo/keps
BID: ORB09246.W
TO ALL RADIO AMATEURS BT

Satellite: NOAA-10
Catalog number: 16969
Epoch time:      09245.61508906
Element set:    0747
Inclination:      098.6889 deg
RA of node:       271.8298 deg
Eccentricity:    0.0012124
Arg of perigee:   335.5245 deg
Mean anomaly:     024.5367 deg
Mean motion:   14.27393179 rev/day
Decay rate:       -9.0e-08 rev/day^2
Epoch rev:           19455
Checksum:              346

Satellite: NOAA-11
Catalog number: 19531
Epoch time:      09245.78274893
Element set:    0766
Inclination:      098.7824 deg
RA of node:       334.5331 deg
Eccentricity:    0.0010806
Arg of perigee:   246.9032 deg
Mean anomaly:     113.0992 deg
Mean motion:   14.14902826 rev/day
Decay rate:        8.4e-07 rev/day^2
Epoch rev:           08049
Checksum:              315

Satellite: NOAA-12
Catalog number: 21263
Epoch time:      09245.94384730
Element set:    0266
Inclination:      098.7744 deg
RA of node:       254.0469 deg
Eccentricity:    0.0011413
Arg of perigee:   283.1098 deg
Mean anomaly:     076.8807 deg
Mean motion:   14.25591224 rev/day
Decay rate:        1.6e-07 rev/day^2
Epoch rev:           95147
Checksum:              314

Satellite: MET-3/5
Catalog number: 21655
Epoch time:      09245.94157772
Element set:    0668
Inclination:      082.5559 deg
RA of node:       151.5815 deg
Eccentricity:    0.0014076
Arg of perigee:   352.6035 deg
Mean anomaly:     007.4877 deg
Mean motion:   13.17020239 rev/day
Decay rate:        5.1e-07 rev/day^2
Epoch rev:           86786
Checksum:              324

Satellite: MET-2/21
Catalog number: 22782
Epoch time:      09246.78451631
Element set:     555
Inclination:      082.5477 deg
RA of node:       119.6761 deg
Eccentricity:    0.0023479
Arg of perigee:   123.7812 deg
Mean anomaly:     236.5589 deg
Mean motion:   13.83638308 rev/day
Decay rate:       -8.0e-08 rev/day^2
Epoch rev:           80847
Checksum:              339

